cover

 

Get it on iTunes StoreListen on Apple Music

Space Motion

#Trackname / Key / BPM / Publish dateArtists, Remixers / Label
1 124 bpm, 10B / D major, 2019-06-24, Progressive House,  2  2
2 122 bpm, 7A / D minor, 2019-06-24, Progressive House,  0  2
3 120 bpm, 9B / G major, 2019-06-17, Afro House,  2  2
4 120 bpm, 9B / G major, 2019-06-17, Afro House,  1  2
5 123 bpm, 1A / Ab minor, 2019-06-03, Progressive House,  8  3
6 124 bpm, 10B / D major, 2019-06-03, Progressive House,  5  3
7 124 bpm, 7A / D minor, 2019-06-03, Progressive House,  2  3
8 123 bpm, 7B / F major, 2019-05-20, Afro House,  4  2
9 125 bpm, 9A / E minor, 2019-05-20, Afro House,  5  2
10 124 bpm, 4B / Ab major, 2019-05-17, Progressive House,  4  4
11 122 bpm, 6A / G minor, 2019-05-13, Melodic House & Techno,  1  5
12 124 bpm, 7B / F major, 2019-05-10, Progressive House,  3  2
13 122 bpm, 6A / G minor, 2019-05-10, Progressive House,  2  2
14 120 bpm, 3B / Db major, 2019-04-26, Progressive House,  1  25
15 122 bpm, 5B / Eb major, 2019-04-22, Progressive House,  1  5
16 124 bpm, 8A / A minor, 2019-04-15, Progressive House,  10  3
17 120 bpm, 8A / A minor, 2019-04-15, Afro House,  1  3
18 122 bpm, 8A / A minor, 2019-04-15, Afro House,  1  3
19 118 bpm, 7A / D minor, 2019-04-10, Afro House,  3  2
20 118 bpm, 7A / D minor, 2019-04-10, Afro House,  0  2
21 119 bpm, 7A / D minor, 2019-04-08, Progressive House,  0  25
22 124 bpm, 7A / D minor, 2019-04-05, Afro House,  1  25
23 122 bpm, 11B / A major, 2019-03-25, Afro House,  1  1
24 125 bpm, 6B / Bb major, 2019-03-01, Progressive House,  5  25
25 124 bpm, 9B / G major, 2019-02-28, Progressive House,  0  15
26 125 bpm, 7B / F major, 2019-02-08, Progressive House,  0  25
27 122 bpm, 6A / G minor, 2019-02-04, Melodic House & Techno,  19  1
4
28 124 bpm, 7B / F major, 2019-01-28, Progressive House,  3  3
1
29 122 bpm, 8B / C major, 2019-01-28, Progressive House,  7  3
2
30 123 bpm, 8B / C major, 2019-01-28, Progressive House,  0  3
1
31 124 bpm, 7A / D minor, 2019-01-21, Afro House,  1  3
32 124 bpm, 9B / G major, 2019-01-17, Progressive House,  0  17
33 124 bpm, 7A / D minor, 2019-01-07, Melodic House & Techno,  22  1
1
34 124 bpm, 9B / G major, 2018-12-21, Afro House,  0  1
35 123 bpm, 5B / Eb major, 2018-12-17, Progressive House,  1  32
36 122 bpm, 12B / E major, 2018-12-17, Progressive House,  0  32
37 119 bpm, 7A / D minor, 2018-12-17, Progressive House,  9  2
1
38 124 bpm, 7A / D minor, 2018-12-17, Afro House,  1  2
39 123 bpm, 12B / E major, 2018-12-17, Progressive House,  0  60
40 120 bpm, 3B / Db major, 2018-12-17, Progressive House,  4  4
41 125 bpm, 12B / E major, 2018-12-17, Melodic House & Techno,  1  4
42 124 bpm, 12B / E major, 2018-12-17, Melodic House & Techno,  0  4
43 126 bpm, 8B / C major, 2018-12-17, Melodic House & Techno,  0  4
44 124 bpm, 11B / A major, 2018-11-12, Afro House,  1  10
45 125 bpm, 6B / Bb major, 2018-10-29, Progressive House,  32  2
1
46 125 bpm, 7B / F major, 2018-10-29, Progressive House,  7  2
1
47 123 bpm, 6B / Bb major, 2018-10-26, Progressive House,  1  25
48 122 bpm, 5B / Eb major, 2018-10-15, Progressive House,  7  3
49 124 bpm, 4B / Ab major, 2018-10-13, Melodic House & Techno,  0  20
50 124 bpm, 8A / A minor, 2018-10-13, Tech House,  0  20
51 123 bpm, 12B / E major, 2018-10-01, Progressive House,  3  3
52 126 bpm, 12B / E major, 2018-10-01, Progressive House,  0  3
53 124 bpm, 5B / Eb major, 2018-10-01, Techno,  0  3
54 123 bpm, 9B / G major, 2018-09-17, Melodic House & Techno,  1  3
55 122 bpm, 5B / Eb major, 2018-07-23, Progressive House,  7  3
1
56 123 bpm, 5B / Eb major, 2018-07-23, Progressive House,  9  3
57 122 bpm, 7B / F major, 2018-07-23, Progressive House,  4  3
58 123 bpm, 6B / Bb major, 2018-07-02, Progressive House,  1  1
59 124 bpm, 6A / G minor, 2018-06-28, Afro House,  0  3
60 124 bpm, 8B / C major, 2018-06-28, Progressive House,  0  3
61 122 bpm, 10B / D major, 2018-06-16, Progressive House,  1  1
62 124 bpm, 9B / G major, 2018-04-20, Deep House,  0  1
63 122 bpm, 5B / Eb major, 2018-04-02, Progressive House,  19  2
64 122 bpm, 12B / E major, 2018-03-16, Progressive House,  1  21
65 128 bpm, 2B / F# major, 2018-03-02, Dance,  0  13
66 122 bpm, 12B / E major, 2018-01-29, Progressive House,  6  1
67 128 bpm, 2B / F# major, 2018-01-26, Dance,  0  10
68 124 bpm, 11B / A major, 2018-01-22, Afro House,  13  3
69 124 bpm, 7B / F major, 2018-01-22, Progressive House,  5  3
70 122 bpm, 10B / D major, 2018-01-22, Progressive House,  4  3
71 123 bpm, 8A / A minor, 2018-01-08, Progressive House,  0  20
72 126 bpm, 12B / E major, 2017-12-29, Progressive House,  0  100
73 124 bpm, 9B / G major, 2017-12-25, Progressive House,  2  20
74 122 bpm, 4B / Ab major, 2017-11-20, Progressive House,  3  10
75 122 bpm, 4B / Ab major, 2017-11-10, Progressive House,  0  14
76 125 bpm, 12B / E major, 2017-09-28, Progressive House,  0  15
77 124 bpm, 11A / F# minor, 2017-09-22, Progressive House,  0  16
78 124 bpm, 2B / F# major, 2017-09-22, Progressive House,  2  16
79 124 bpm, 4B / Ab major, 2017-08-14, Progressive House,  0  1
80 123 bpm, 12B / E major, 2017-07-17, Progressive House,  0  3
81 123 bpm, 8A / A minor, 2017-07-17, Progressive House,  1  3
82 123 bpm, 9A / E minor, 2017-07-17, Progressive House,  1  3
83 122 bpm, 4B / Ab major, 2017-07-13, Progressive House,  0  14
84 126 bpm, 12B / E major, 2017-06-16, Progressive House,  0  53
85 121 bpm, 9B / G major, 2017-06-12, Techno,  0  10
86 130 bpm, 7A / D minor, 2017-04-17, Trance,  0  5
87 130 bpm, 7A / D minor, 2017-04-17, Trance,  0  5
88 126 bpm, 12B / E major, 2017-04-07, Progressive House,  1  11
89 121 bpm, 9B / G major, 2017-02-21, Techno,  6  3
90 127 bpm, 6A / G minor, 2017-02-21, Techno,  1  3
91 124 bpm, 8A / A minor, 2017-02-21, Tech House,  0  3
92 122 bpm, 4B / Ab major, 2017-02-06, Progressive House,  9  2
93 125 bpm, 12B / E major, 2017-02-06, Progressive House,  2  2
94 130 bpm, 10A / B minor, 2017-01-23, Trance,  0  9
95 130 bpm, 7A / D minor, 2017-01-23, Trance,  0  9
96 136 bpm, 10A / B minor, 2017-01-23, Trance,  0  9
97 128 bpm, 10A / B minor, 2017-01-23, Trance,  0  9
98 128 bpm, 10A / B minor, 2017-01-23, Trance,  0  9
99 128 bpm, 10A / B minor, 2017-01-23, Trance,  0  9
100 130 bpm, 10A / B minor, 2017-01-23, Trance,  0  9
×

Sign in

Sign in to access your personalized pages, follow artists and labels you love, and create playlists fromyour favorite tracks.

Please wait...